EZY12B EGJJ-EGKK

Flight info

Callsign EZY12B
Flight time 0h 39m
Altitude 23000
Route ORIST L982 VASUX
Aircraft A319/M-SDE3FGHIRWY/LB1

Departure

Time 2026-05-07 11:48
Airport Jersey Airport (EGJJ)

Arrival

Time 2026-05-07 12:27
Airport London Gatwick Airport (EGKK)
Time Latitude Longitude Altitude Speed Heading
2026-05-07 11:14 49.20492 -2.19616 284 ft 0 kts 16°
2026-05-07 11:40 49.20491 -2.19616 284 ft 1 kts 16°
2026-05-07 11:40 49.20468 -2.19624 288 ft 4 kts 355°
2026-05-07 11:40 49.20443 -2.19612 289 ft 4 kts 317°
2026-05-07 11:40 49.20429 -2.19580 286 ft 3 kts 285°
2026-05-07 11:41 49.20428 -2.19576 284 ft 0 kts 284°
2026-05-07 11:43 49.20428 -2.19579 286 ft 1 kts 284°
2026-05-07 11:44 49.20434 -2.19615 289 ft 6 kts 284°
2026-05-07 11:44 49.20440 -2.19710 284 ft 12 kts 267°
2026-05-07 11:44 49.20433 -2.19856 284 ft 14 kts 265°
2026-05-07 11:44 49.20497 -2.19933 284 ft 13 kts 334°
2026-05-07 11:45 49.20531 -2.20056 284 ft 13 kts 287°
2026-05-07 11:45 49.20557 -2.20187 284 ft 13 kts 288°
2026-05-07 11:45 49.20575 -2.20275 284 ft 13 kts 286°
2026-05-07 11:45 49.20601 -2.20410 284 ft 13 kts 286°
2026-05-07 11:46 49.20622 -2.20548 287 ft 13 kts 278°
2026-05-07 11:46 49.20639 -2.20685 286 ft 13 kts 309°
2026-05-07 11:46 49.20705 -2.20646 283 ft 0 kts 81°
2026-05-07 11:47 49.20732 -2.20338 284 ft 74 kts 83°
2026-05-07 11:47 49.20837 -2.19124 302 ft 150 kts 84°
2026-05-07 11:48 49.20992 -2.17430 792 ft 171 kts 84°
2026-05-07 11:48 49.21188 -2.15593 1566 ft 181 kts 82°
2026-05-07 11:48 49.21428 -2.13706 2351 ft 181 kts 81°
2026-05-07 11:48 49.21715 -2.11821 3077 ft 184 kts 80°
2026-05-07 11:49 49.21911 -2.09820 3606 ft 196 kts 86°
2026-05-07 11:49 49.22055 -2.07679 4181 ft 207 kts 86°
2026-05-07 11:49 49.22361 -2.05455 4706 ft 227 kts 63°
2026-05-07 11:49 49.23572 -2.03757 4833 ft 245 kts 25°
2026-05-07 11:50 49.25181 -2.03397 4889 ft 231 kts 356°
2026-05-07 11:50 49.26800 -2.03649 4924 ft 242 kts 353°
2026-05-07 11:50 49.28587 -2.03949 4911 ft 269 kts 354°
2026-05-07 11:50 49.30477 -2.04151 4971 ft 274 kts 358°
2026-05-07 11:51 49.32389 -2.04173 5006 ft 275 kts
2026-05-07 11:51 49.34289 -2.04085 5210 ft 271 kts
2026-05-07 11:51 49.36196 -2.03955 5730 ft 276 kts
2026-05-07 11:51 49.38128 -2.03822 6252 ft 279 kts
2026-05-07 11:52 49.40076 -2.03699 6758 ft 281 kts
2026-05-07 11:52 49.42039 -2.03582 7257 ft 283 kts
2026-05-07 11:52 49.44014 -2.03473 7765 ft 285 kts
2026-05-07 11:52 49.46010 -2.03370 8281 ft 287 kts
2026-05-07 11:53 49.48015 -2.03265 8809 ft 290 kts
2026-05-07 11:53 49.50039 -2.03160 9346 ft 291 kts
2026-05-07 11:53 49.52065 -2.03057 10167 ft 294 kts
2026-05-07 11:53 49.54121 -2.02950 10960 ft 297 kts
2026-05-07 11:54 49.56202 -2.02842 11782 ft 301 kts
2026-05-07 11:54 49.58305 -2.02731 12611 ft 304 kts
2026-05-07 11:54 49.60439 -2.02617 13374 ft 309 kts
2026-05-07 11:54 49.62599 -2.02499 14052 ft 312 kts
2026-05-07 11:55 49.64781 -2.02379 14712 ft 315 kts
2026-05-07 11:55 49.66983 -2.02261 15382 ft 318 kts
2026-05-07 11:55 49.69182 -2.02141 16060 ft 321 kts
2026-05-07 11:55 49.71458 -2.02019 16777 ft 325 kts
2026-05-07 11:56 49.73701 -2.01901 17482 ft 328 kts
2026-05-07 11:56 49.75992 -2.01783 18219 ft 331 kts
2026-05-07 11:56 49.78292 -2.01377 18876 ft 335 kts 12°
2026-05-07 11:56 49.80507 -2.00215 19529 ft 338 kts 25°
2026-05-07 11:57 49.82602 -1.98534 20205 ft 340 kts 27°
2026-05-07 11:57 49.84697 -1.96837 20898 ft 341 kts 27°
2026-05-07 11:57 49.86799 -1.95143 21603 ft 341 kts 27°
2026-05-07 11:57 49.88907 -1.93447 22331 ft 341 kts 26°
2026-05-07 11:58 49.91017 -1.91755 22905 ft 346 kts 26°
2026-05-07 11:58 49.93210 -1.89998 23044 ft 364 kts 26°
2026-05-07 11:58 49.95523 -1.88138 23066 ft 384 kts 27°
2026-05-07 11:58 49.97950 -1.86177 23067 ft 401 kts 27°
2026-05-07 11:59 50.00450 -1.84151 23070 ft 407 kts 27°
2026-05-07 11:59 50.02970 -1.82125 23073 ft 409 kts 26°
2026-05-07 11:59 50.05505 -1.80114 23077 ft 409 kts 26°
2026-05-07 11:59 50.08047 -1.78108 23072 ft 409 kts 26°
2026-05-07 12:00 50.10591 -1.76105 23074 ft 409 kts 26°
2026-05-07 12:00 50.13026 -1.73806 23073 ft 410 kts 36°
2026-05-07 12:00 50.15250 -1.71019 23078 ft 410 kts 39°
2026-05-07 12:00 50.17443 -1.68177 23075 ft 410 kts 39°
2026-05-07 12:01 50.19636 -1.65326 23083 ft 410 kts 39°
2026-05-07 12:01 50.21824 -1.62474 23080 ft 410 kts 39°
2026-05-07 12:01 50.24015 -1.59617 23074 ft 410 kts 39°
2026-05-07 12:01 50.26206 -1.56761 23077 ft 410 kts 39°
2026-05-07 12:02 50.28377 -1.53940 23079 ft 410 kts 39°
2026-05-07 12:02 50.30577 -1.51091 23076 ft 410 kts 39°
2026-05-07 12:02 50.32777 -1.48248 23060 ft 409 kts 39°
2026-05-07 12:02 50.34959 -1.45431 22647 ft 404 kts 39°
2026-05-07 12:03 50.37124 -1.42624 22084 ft 403 kts 39°
2026-05-07 12:03 50.39277 -1.39823 21526 ft 402 kts 39°
2026-05-07 12:03 50.41429 -1.37020 20984 ft 401 kts 39°
2026-05-07 12:03 50.43576 -1.34225 20443 ft 400 kts 39°
2026-05-07 12:04 50.45708 -1.31439 19921 ft 399 kts 39°
2026-05-07 12:04 50.47834 -1.28651 19393 ft 397 kts 39°
2026-05-07 12:04 50.49951 -1.25880 18884 ft 395 kts 39°
2026-05-07 12:04 50.52061 -1.23122 18382 ft 394 kts 39°
2026-05-07 12:05 50.54163 -1.20367 17836 ft 391 kts 39°
2026-05-07 12:05 50.56236 -1.17638 17409 ft 386 kts 40°
2026-05-07 12:05 50.58279 -1.14942 16987 ft 380 kts 40°
2026-05-07 12:05 50.60288 -1.12287 16568 ft 375 kts 40°
2026-05-07 12:06 50.62276 -1.09658 16155 ft 370 kts 40°
2026-05-07 12:06 50.64237 -1.07071 15748 ft 366 kts 40°
2026-05-07 12:06 50.66109 -1.04399 15344 ft 361 kts 47°
2026-05-07 12:06 50.67706 -1.01377 15016 ft 355 kts 51°
2026-05-07 12:07 50.69251 -0.98387 14688 ft 349 kts 51°
2026-05-07 12:07 50.70780 -0.95447 14345 ft 345 kts 51°
2026-05-07 12:07 50.72285 -0.92556 13837 ft 346 kts 51°
2026-05-07 12:07 50.73812 -0.89623 13279 ft 346 kts 51°
2026-05-07 12:08 50.75317 -0.86719 13061 ft 336 kts 52°
2026-05-07 12:08 50.76759 -0.83928 13072 ft 320 kts 52°
2026-05-07 12:08 50.78142 -0.81255 13076 ft 310 kts 52°
2026-05-07 12:08 50.79504 -0.78618 12933 ft 309 kts 52°
2026-05-07 12:09 50.80688 -0.75829 12643 ft 304 kts 64°
2026-05-07 12:09 50.81426 -0.72722 12349 ft 300 kts 78°
2026-05-07 12:09 50.81813 -0.69488 12045 ft 299 kts 81°
2026-05-07 12:09 50.82185 -0.66231 11530 ft 303 kts 81°
2026-05-07 12:10 50.82569 -0.62932 11027 ft 306 kts 81°
2026-05-07 12:10 50.82960 -0.59611 10531 ft 309 kts 81°
2026-05-07 12:10 50.83353 -0.56262 10044 ft 311 kts 81°
2026-05-07 12:10 50.83744 -0.52892 9508 ft 312 kts 81°
2026-05-07 12:11 50.84133 -0.49512 8977 ft 313 kts 81°
2026-05-07 12:11 50.84524 -0.46125 8437 ft 313 kts 80°
2026-05-07 12:11 50.84911 -0.42762 8135 ft 306 kts 80°
2026-05-07 12:11 50.85286 -0.39505 7925 ft 296 kts 80°
2026-05-07 12:12 50.85650 -0.36348 7710 ft 287 kts 80°
2026-05-07 12:12 50.86000 -0.33290 7510 ft 278 kts 80°
2026-05-07 12:12 50.86336 -0.30323 7304 ft 269 kts 80°
2026-05-07 12:12 50.86662 -0.27455 7101 ft 261 kts 80°
2026-05-07 12:13 50.86978 -0.24666 6903 ft 253 kts 80°
2026-05-07 12:13 50.87284 -0.21968 6703 ft 246 kts 80°
2026-05-07 12:13 50.87576 -0.19361 6513 ft 242 kts 80°
2026-05-07 12:13 50.87866 -0.16738 6269 ft 242 kts 80°
2026-05-07 12:14 50.88155 -0.14124 6005 ft 240 kts 80°
2026-05-07 12:14 50.88443 -0.11528 5742 ft 239 kts 80°
2026-05-07 12:14 50.88759 -0.08956 5475 ft 237 kts 73°
2026-05-07 12:14 50.89624 -0.06802 5216 ft 232 kts 40°
2026-05-07 12:15 50.91036 -0.05695 4965 ft 227 kts 10°
2026-05-07 12:15 50.92580 -0.05858 4707 ft 223 kts 340°
2026-05-07 12:15 50.93847 -0.07184 4440 ft 219 kts 310°
2026-05-07 12:15 50.94672 -0.09188 4182 ft 216 kts 300°
2026-05-07 12:16 50.95441 -0.11210 4022 ft 211 kts 301°
2026-05-07 12:16 50.96201 -0.13188 4005 ft 210 kts 301°
2026-05-07 12:16 50.96963 -0.15165 4007 ft 210 kts 301°
2026-05-07 12:16 50.97725 -0.17143 4007 ft 210 kts 301°
2026-05-07 12:17 50.98438 -0.19156 4005 ft 209 kts 292°
2026-05-07 12:17 50.98862 -0.21371 3878 ft 209 kts 283°
2026-05-07 12:17 50.99214 -0.23606 3711 ft 208 kts 284°
2026-05-07 12:17 50.99568 -0.25832 3561 ft 208 kts 284°
2026-05-07 12:18 50.99924 -0.28058 3410 ft 208 kts 284°
2026-05-07 12:18 51.00280 -0.30283 3263 ft 208 kts 284°
2026-05-07 12:18 51.00632 -0.32502 3128 ft 207 kts 284°
2026-05-07 12:18 51.00986 -0.34723 3026 ft 207 kts 284°
2026-05-07 12:19 51.01340 -0.36935 3003 ft 207 kts 284°
2026-05-07 12:19 51.01693 -0.39147 3006 ft 207 kts 284°
2026-05-07 12:19 51.02046 -0.41364 3005 ft 207 kts 284°
2026-05-07 12:19 51.02398 -0.43576 3005 ft 207 kts 284°
2026-05-07 12:20 51.02752 -0.45793 3002 ft 207 kts 284°
2026-05-07 12:20 51.03103 -0.48007 3004 ft 207 kts 283°
2026-05-07 12:20 51.03455 -0.50223 3003 ft 207 kts 284°
2026-05-07 12:20 51.03862 -0.52413 2984 ft 207 kts 296°
2026-05-07 12:21 51.04854 -0.54025 3000 ft 208 kts 333°
2026-05-07 12:21 51.06242 -0.54414 3002 ft 200 kts
2026-05-07 12:21 51.07595 -0.54211 3028 ft 191 kts
2026-05-07 12:21 51.08899 -0.53838 2996 ft 190 kts 22°
2026-05-07 12:22 51.09937 -0.52580 2997 ft 190 kts 52°
2026-05-07 12:22 51.10455 -0.50703 3010 ft 189 kts 78°
2026-05-07 12:22 51.10711 -0.48624 3002 ft 189 kts 79°
2026-05-07 12:22 51.10974 -0.46610 3008 ft 188 kts 78°
2026-05-07 12:23 51.11254 -0.44576 3005 ft 188 kts 78°
2026-05-07 12:23 51.11539 -0.42537 2951 ft 189 kts 78°
2026-05-07 12:23 51.11824 -0.40507 2756 ft 188 kts 77°
2026-05-07 12:23 51.12108 -0.38479 2520 ft 187 kts 78°
2026-05-07 12:24 51.12390 -0.36459 2271 ft 187 kts 78°
2026-05-07 12:24 51.12670 -0.34458 2014 ft 182 kts 78°
2026-05-07 12:24 51.12940 -0.32528 1777 ft 174 kts 78°
2026-05-07 12:24 51.13190 -0.30736 1533 ft 157 kts 78°
2026-05-07 12:25 51.13415 -0.29122 1319 ft 142 kts 78°
2026-05-07 12:25 51.13622 -0.27634 1118 ft 134 kts 78°
2026-05-07 12:25 51.13821 -0.26199 941 ft 131 kts 78°
2026-05-07 12:25 51.14017 -0.24789 768 ft 130 kts 78°
2026-05-07 12:26 51.14211 -0.23386 587 ft 129 kts 78°
2026-05-07 12:26 51.14405 -0.21989 426 ft 130 kts 78°
2026-05-07 12:26 51.14599 -0.20589 250 ft 128 kts 78°
2026-05-07 12:26 51.14776 -0.19309 212 ft 101 kts 77°
2026-05-07 12:27 51.14899 -0.18428 211 ft 64 kts 77°
2026-05-07 12:27 51.14988 -0.17937 212 ft 39 kts 58°
2026-05-07 12:27 51.15087 -0.17759 215 ft 11 kts 23°
2026-05-07 12:27 51.15105 -0.17757 211 ft 0 kts 355°
2026-05-07 12:29 51.15106 -0.17757 211 ft 1 kts 355°
2026-05-07 12:29 51.15144 -0.17763 211 ft 11 kts 354°
2026-05-07 12:30 51.15241 -0.17767 213 ft 14 kts 21°
2026-05-07 12:30 51.15275 -0.17630 215 ft 14 kts 77°
2026-05-07 12:30 51.15297 -0.17469 209 ft 15 kts 79°
2026-05-07 12:30 51.15365 -0.17373 213 ft 15 kts 352°
2026-05-07 12:31 51.15471 -0.17413 211 ft 16 kts 348°
2026-05-07 12:31 51.15583 -0.17452 220 ft 17 kts 346°
2026-05-07 12:31 51.15683 -0.17490 213 ft 8 kts 347°
2026-05-07 12:31 51.15739 -0.17505 209 ft 8 kts
2026-05-07 12:32 51.15771 -0.17436 212 ft 9 kts 79°
2026-05-07 12:32 51.15784 -0.17339 211 ft 9 kts 77°
2026-05-07 12:32 51.15799 -0.17232 211 ft 10 kts 76°
2026-05-07 12:32 51.15817 -0.17115 210 ft 11 kts 63°
2026-05-07 12:33 51.15916 -0.17135 215 ft 4 kts 315°
2026-05-07 12:33 51.15928 -0.17154 209 ft 1 kts 314°
2026-05-07 12:33 51.15929 -0.17155 209 ft 0 kts 314°